This demonstration page uses our WeatherBlox Daily Observations layout. Learn more.

Left ArrowRight Arrow

34.16533, -84.80231

Hourly Observations for July 4, 2016

Temp ( °F °C ) Dew Point ( °F °C ) Humidity (%) Winds ( mph kmh ) Pressure ( in mb ) Visibility ( mi km ) Precip ( " mm )
12:53 am 00:53 Clear 77 25 69 20.6 77 77 Calm 29.99 1016 10 16 0.00 0.00
1:53 am 01:53 Clear 75 23.9 70 21.1 84 84 Calm 30.00 1016 9 14 0.00 0.00
2:53 am 02:53 Clear 74 23.3 70 21.1 88 88 Calm 30.00 1016 9 14 0.00 0.00
3:53 am 03:53 Clear 76 24.4 69 20.6 79 79 Calm 29.99 1016 10 16 0.00 0.00
4:53 am 04:53 Clear 74 23.3 69 20.6 85 85 Calm 29.99 1016 10 16 0.00 0.00
6:53 am 06:53 Sunny 71 21.7 69 20.6 94 94 Calm 30.03 1017 7 11 0.00 0.00
7:53 am 07:53 Sunny 75 23.9 70 21.1 84 84 Calm 30.04 1017 8 13 0.00 0.00
8:53 am 08:53 Sunny 81 27.2 72 22.2 74 74 SSW 5 7 30.04 1017 10 16 0.00 0.00
9:53 am 09:53 Sunny 85 29.4 72 22.2 65 65 VRB 6 9 30.04 1017 10 16 0.00 0.00
10:53 am 10:53 Sunny 88 31.1 71 21.7 57 57 VRB 7 11 30.03 1017 10 16 0.00 0.00
11:53 am 11:53 Mostly Sunny 90 32.2 71 21.7 54 54 SSW 10 17 30.03 1017 10 16 0.00 0.00
12:53 pm 12:53 Mostly Sunny 91 32.8 68 20 47 47 SSW 10 17 30.02 1017 10 16 0.00 0.00
1:53 pm 13:53 Mostly Sunny 93 33.9 68 20 44 44 SSW 8 13 30.00 1016 10 16 0.00 0.00
2:53 pm 14:53 Mostly Cloudy 93 33.9 68 20 44 44 SSW 8 13 29.97 1015 10 16 0.00 0.00
3:53 pm 15:53 Partly Cloudy 93 33.9 68 20 44 44 S 9 15 29.97 1015 10 16 0.00 0.00
4:26 pm 16:26 Partly Cloudy with Nearby Thunderstorms 94 34.4 68 20 43 43 SW 8 13 29.97 1015 10 16 0.00 0.00
4:41 pm 16:41 Partly Cloudy 94 34.4 68 20 43 43 SSW 8 13 29.97 1015 10 16 0.00 0.00
4:53 pm 16:53 Mostly Sunny 94 34.4 67 19.4 41 41 SSW 12 19 29.96 1015 10 16 0.00 0.00
5:53 pm 17:53 Sunny 94 34.4 67 19.4 41 41 VRB 6 9 29.95 1014 10 16 0.00 0.00
6:53 pm 18:53 Mostly Sunny 92 33.3 68 20 46 46 VRB 6 9 29.93 1014 10 16 0.00 0.00
7:53 pm 19:53 Sunny 89 31.7 67 19.4 48 48 S 5 7 29.95 1014 10 16 0.00 0.00
8:53 pm 20:53 Sunny 87 30.6 67 19.4 51 51 S 3 6 29.96 1014 10 16 0.00 0.00
9:53 pm 21:53 Clear 85 29.4 66 18.9 53 53 S 3 6 29.95 1014 10 16 0.00 0.00
10:53 pm 22:53 Clear 84 28.9 66 18.9 55 55 SSW 3 6 29.97 1015 10 16 0.00 0.00
11:53 pm 23:53 Clear 82 27.8 66 18.9 58 58 S 7 11 29.98 1015 10 16 0.00 0.00

Powered by AerisWeather